Temp
61 62 61 63 62 63 63 62 61 61 62 62 62 62 62 61 60 71 70 75 74 68 69 78 79 77 77 75 74 72 67 64 66 64 70 75 76 80 81 80 81 84 82 82 78
61 62 60 59 59 61 62 61 61 61 61 61 61 61 61 60 63 65 72 68 68 69 78 76 75 76 74 72 73 72 66 67 69 69 71 72 74 77 77 77 79 81 79 76 77
61 61 61 60 61 60 61 61 60 61 61 61 61 61 60 61 65 70 69 68 69 72 77 77 76 75 72 72 70 65 67 67 71 71 72 72 73 76 74 74 80 80 82 78 76
60 60 60 61 60 60 61 60 60 61 61 61 61 62 61 65 57 73 69 69 70 76 77 75 74 71 68 68 69 65 67 68 72 70 71 72 75 74 75 79 84 83 83 79 77
59 59 59 60 59 59 60 59 60 60 61 61 62 62 63 61 64 73 69 71 77 77 74 73 71 69 66 67 67 65 67 68 70 70 70 70 72 71 74 80 81 80 77 79 80
59 58 59 59 59 59 59 59 59 59 60 61 61 61 60 52 74 71 70 73 74 75 73 74 71 72 68 66 66 66 66 67 68 71 70 70 72 71 78 78 79 77 79 79 78
59 58 58 58 59 59 58 59 59 59 60 61 61 62 56 59 72 69 69 72 73 73 71 73 74 70 69 65 68 66 63 66 67 68 68 69 66 66 79 76 76 78 78 78 78
59 58 57 57 57 57 58 58 58 59 59 60 61 61 52 68 71 68 71 72 72 73 73 75 75 70 68 68 65 62 61 59 67 66 68 71 65 74 77 74 76 77 78 77 80
58 58 57 57 57 56 57 58 58 59 59 60 59 57 52 67 63 70 71 70 71 73 74 75 73 66 66 61 58 57 56 54 61 67 67 67 64 72 72 71 72 77 78 77 78
57 58 57 56 56 56 56 58 58 58 58 62 60 54 58 59 65 68 68 72 69 67 68 66 62 60 58 59 53 53 54 54 55 64 64 63 62 68 69 69 70 75 76 76 77
57 57 57 57 56 55 55 55 51 49 51 51 52 55 60 65 68 65 67 68 67 64 57 60 57 53 57 59 59 57 55 55 58 63 62 62 62 65 70 71 71 72 74 74 76
57 57 57 57 56 55 54 52 57 60 47 55 54 56 62 63 57 64 69 62 61 56 57 55 51 59 59 57 58 56 54 54 59 62 58 59 58 64 68 70 73 73 76 75 77
56 56 56 56 56 52 51 53 67 65 51 52 54 53 56 61 55 59 65 60 58 54 55 54 57 59 57 56 53 54 53 52 55 59 61 57 59 60 66 68 71 72 73 75 73
56 56 56 55 50 52 48 58 61 65 44 46 48 55 59 60 53 65 67 63 57 53 53 55 60 54 54 54 56 49 57 57 54 53 49 57 50 59 65 69 71 74 73 74 73
55 56 55 55 51 47 55 58 59 57 25 52 50 65 60 55 59 57 66 62 53 52 55 52 51 54 53 52 57 53 57 56 54 51 49 53 52 61 60 61 68 73 74 73 70
55 55 55 52 51 55 57 58 52 36 26 45 50 48 48 53 58 58 60 64 61 54 54 56 58 58 58 59 59 60 56 54 51 51 43 52 54 60 63 65 66 72 72 71 68
55 55 53 53 46 55 55 48 37 29 48 40 42 47 48 47 51 54 52 51 50 45 44 50 53 57 59 54 57 59 53 43 41 41 43 56 50 58 64 66 68 70 74 71 67
54 54 53 52 54 54 50 39 30 37 43 50 47 47 44 48 49 52 50 47 55 53 51 45 43 53 59 57 51 54 54 45 39 40 49 50 46 59 67 71 70 70 71 68 65
54 50 49 51 53 51 42 30 33 38 50 47 46 40 42 47 48 50 50 49 53 55 50 45 47 57 59 61 61 50 47 59 49 46 45 54 58 61 61 64 64 66 66 66 64
48 47 46 52 52 46 35 32 33 46 54 51 42 45 39 44 45 47 47 55 53 57 61 53 46 54 58 62 63 58 60 47 46 39 38 49 48 53 56 60 66 65 63 62 64
47 40 47 51 49 40 30 32 37 43 51 50 47 42 45 43 47 45 47 54 57 56 59 55 51 47 55 52 52 52 50 50 51 46 43 42 51 58 61 63 65 67 63 63 64
39 33 44 48 34 33 32 34 42 43 50 53 52 47 46 47 45 46 46 51 59 59 50 56 48 42 48 55 60 59 55 52 45 42 45 48 51 59 62 63 63 64 62 64 65
33 35 45 46 30 30 34 36 42 43 46 50 47 51 51 47 42 47 49 55 56 57 52 55 45 40 44 52 54 52 54 55 54 48 47 42 49 55 58 59 58 61 62 60 58
35 31 36 40 37 34 32 34 36 45 46 50 50 52 48 46 49 45 46 51 54 58 53 57 46 47 43 47 51 45 51 54 52 43 46 48 54 60 56 58 56 57 58 57 54
35 32 38 31 32 33 37 38 35 36 45 48 45 50 48 40 45 43 48 46 50 53 53 53 45 47 52 50 52 52 51 52 49 50 44 52 53 59 61 58 58 57 53 51 48
33 34 34 34 36 33 35 35 37 38 41 41 42 46 45 41 46 41 48 46 46 47 50 47 39 44 45 50 49 45 50 54 53 53 54 55 54 62 55 56 52 52 52 51 50
41 43 39 35 33 32 34 36 40 42 42 49 47 46 43 44 47 47 49 48 49 48 46 44 41 39 38 47 43 35 45 50 51 56 54 47 55 56 53 54 54 52 51 50 49
MSLP
1015.98 1016.00 1015.91 1015.87 1016.10 1016.31 1016.58 1016.88 1017.09 1017.15 1017.19 1017.22 1017.04 1016.76 1016.44 1015.96 1015.07 1014.44 1013.84 1012.96 1012.75 1012.53 1012.47 1012.31 1012.21 1012.35 1012.43 1012.50 1012.68 1012.84 1012.77 1012.42 1011.88 1011.79 1011.19 1010.98 1010.44 1010.09 1009.87 1009.58 1009.42 1009.32 1009.64 1010.00 1010.55
1015.72 1015.70 1015.85 1015.99 1016.19 1016.28 1016.23 1016.60 1016.90 1017.11 1017.14 1017.16 1017.11 1016.83 1016.48 1016.13 1015.44 1014.27 1013.03 1012.75 1012.69 1012.39 1012.25 1012.18 1012.26 1012.26 1012.43 1012.56 1012.64 1012.57 1012.74 1012.11 1011.92 1011.74 1011.47 1011.24 1010.91 1010.23 1010.04 1009.90 1009.47 1009.50 1010.03 1010.45 1010.85
1015.37 1015.35 1015.45 1015.58 1015.75 1015.98 1016.01 1016.17 1016.57 1016.84 1017.04 1017.09 1017.09 1016.95 1016.55 1016.07 1015.33 1013.56 1012.94 1012.72 1012.77 1012.33 1012.29 1012.23 1012.23 1012.26 1012.43 1012.61 1012.73 1012.81 1012.39 1012.24 1011.84 1011.85 1011.74 1011.30 1010.96 1010.49 1010.34 1009.97 1009.48 1009.56 1009.73 1010.30 1010.77
1014.92 1014.97 1015.13 1015.18 1015.34 1015.40 1015.55 1015.88 1016.22 1016.62 1016.87 1016.94 1016.98 1016.92 1016.61 1016.17 1015.02 1013.22 1013.02 1012.78 1012.78 1012.29 1012.20 1012.19 1012.24 1012.34 1012.51 1012.57 1012.75 1012.85 1012.47 1012.36 1011.97 1011.98 1011.73 1011.21 1010.80 1010.42 1010.23 1009.11 1009.13 1009.47 1009.63 1009.94 1010.18
1014.41 1014.58 1014.72 1014.97 1014.75 1015.04 1015.18 1015.45 1015.90 1016.29 1016.73 1016.89 1016.87 1016.90 1016.59 1016.03 1014.17 1013.05 1012.95 1012.79 1012.64 1012.28 1012.30 1012.29 1012.36 1012.43 1012.48 1012.64 1012.86 1012.92 1012.60 1012.51 1012.27 1012.01 1011.69 1011.50 1010.80 1010.76 1009.72 1009.29 1009.21 1009.25 1009.57 1009.59 1009.49
1013.87 1014.02 1014.37 1014.60 1014.32 1014.72 1015.00 1015.23 1015.52 1016.08 1016.50 1016.78 1016.84 1016.89 1016.90 1015.80 1013.28 1013.22 1013.16 1012.86 1012.92 1012.56 1012.55 1012.44 1012.46 1012.48 1012.55 1012.73 1012.93 1012.97 1012.76 1012.52 1012.29 1011.65 1011.47 1011.22 1010.76 1010.69 1008.79 1008.93 1008.77 1009.07 1008.88 1009.12 1009.03
1013.11 1013.42 1013.72 1014.08 1014.11 1014.04 1014.57 1014.81 1015.17 1015.74 1016.26 1016.64 1016.63 1016.74 1016.55 1014.54 1013.30 1013.25 1013.43 1013.28 1013.20 1013.05 1012.71 1012.64 1012.66 1012.67 1012.68 1012.81 1013.04 1013.00 1012.80 1012.08 1011.60 1011.48 1011.29 1010.96 1010.62 1009.81 1008.28 1008.89 1008.68 1008.60 1008.64 1008.89 1008.80
1012.33 1012.75 1013.09 1013.47 1013.76 1013.84 1013.96 1014.40 1014.85 1015.34 1016.13 1016.44 1016.63 1016.55 1015.44 1013.84 1013.56 1013.48 1013.17 1013.19 1013.11 1013.04 1012.93 1012.83 1012.81 1012.86 1012.95 1013.11 1013.15 1013.02 1012.99 1012.33 1011.44 1011.44 1011.18 1010.90 1009.59 1008.82 1008.61 1008.94 1008.70 1008.50 1008.37 1008.43 1008.33
1011.45 1011.80 1012.29 1012.72 1013.25 1013.66 1013.40 1014.04 1014.48 1015.07 1015.94 1016.32 1016.69 1016.34 1014.77 1013.31 1013.33 1012.78 1012.96 1012.84 1012.94 1012.99 1012.97 1012.97 1012.96 1013.24 1013.36 1013.33 1013.50 1013.41 1012.83 1012.48 1011.79 1011.21 1011.17 1010.97 1009.62 1008.86 1008.98 1008.96 1008.59 1008.14 1007.96 1007.75 1007.44
1010.33 1010.82 1011.40 1012.14 1012.56 1013.26 1013.28 1013.43 1014.19 1015.24 1016.11 1016.13 1016.18 1016.28 1013.94 1012.69 1012.41 1012.20 1012.38 1012.53 1012.72 1013.08 1013.27 1013.35 1013.63 1013.58 1013.64 1013.35 1012.71 1012.96 1013.02 1012.65 1012.02 1011.45 1011.23 1010.90 1010.07 1009.17 1009.11 1008.96 1008.18 1007.61 1007.38 1007.39 1007.19
1009.18 1009.76 1010.49 1011.19 1012.07 1012.81 1013.62 1013.15 1013.72 1015.09 1014.77 1013.34 1013.73 1013.04 1012.12 1012.27 1012.10 1011.98 1012.00 1012.29 1012.61 1013.08 1013.21 1013.55 1013.54 1012.66 1012.58 1012.51 1012.74 1012.91 1013.01 1012.64 1011.71 1011.42 1011.39 1010.54 1009.90 1009.08 1008.75 1008.57 1007.74 1007.34 1006.82 1006.77 1006.38
1007.94 1008.72 1009.53 1010.25 1011.32 1012.21 1013.12 1011.39 1010.10 1010.06 1012.94 1013.15 1013.30 1013.23 1012.33 1012.29 1012.04 1011.72 1011.81 1011.85 1012.10 1012.29 1013.16 1013.79 1012.18 1012.27 1012.75 1013.05 1013.10 1013.16 1013.19 1012.90 1012.00 1011.25 1011.35 1010.19 1009.42 1008.80 1008.44 1007.13 1006.91 1006.29 1006.05 1006.04 1005.83
1006.77 1007.61 1008.60 1009.70 1010.95 1011.98 1011.79 1010.95 1010.26 1009.72 1011.09 1012.01 1012.24 1012.44 1012.25 1012.31 1011.86 1011.24 1011.45 1011.33 1011.41 1011.99 1012.00 1011.79 1011.26 1011.74 1012.55 1012.84 1013.02 1012.96 1012.98 1012.84 1012.68 1011.71 1010.94 1010.37 1008.00 1007.52 1006.90 1006.51 1006.07 1005.55 1005.57 1005.51 1005.85
1005.48 1006.52 1007.75 1009.35 1011.21 1010.67 1010.72 1010.54 1010.73 1009.55 1010.08 1010.30 1010.70 1009.96 1011.06 1011.56 1010.86 1010.47 1010.64 1010.77 1011.34 1011.24 1012.14 1012.06 1011.43 1011.77 1011.96 1011.86 1012.39 1012.65 1012.43 1012.67 1012.76 1012.88 1011.54 1010.79 1007.69 1006.73 1006.30 1005.52 1005.22 1004.71 1004.87 1004.91 1005.47
1004.22 1005.39 1006.94 1007.92 1008.32 1009.37 1007.82 1009.32 1010.41 1009.26 1008.13 1007.06 1007.90 1007.97 1008.57 1009.69 1009.13 1009.34 1009.92 1010.35 1010.43 1010.84 1011.48 1010.49 1010.78 1010.88 1011.04 1010.67 1011.57 1011.87 1012.02 1012.37 1012.72 1012.61 1011.98 1010.62 1009.45 1005.64 1005.76 1005.18 1004.14 1003.68 1003.78 1004.58 1005.31
1003.13 1004.39 1005.98 1007.29 1007.99 1006.96 1008.65 1008.34 1009.55 1008.04 1004.03 1005.02 1005.90 1006.76 1007.93 1008.22 1008.25 1008.91 1009.20 1009.76 1010.03 1010.62 1010.59 1010.34 1010.36 1010.29 1009.80 1010.26 1010.77 1011.41 1012.13 1012.61 1012.89 1012.57 1011.08 1009.58 1008.89 1003.36 1004.51 1004.12 1003.60 1003.30 1003.84 1004.55 1005.28
1002.05 1003.45 1004.89 1006.02 1005.11 1006.96 1008.18 1008.69 1006.09 1003.28 1002.29 1003.82 1004.85 1005.63 1005.69 1006.63 1007.79 1007.74 1008.51 1008.91 1008.64 1009.63 1009.65 1010.22 1009.88 1009.63 1009.50 1010.08 1010.71 1010.70 1011.31 1012.29 1012.58 1012.18 1009.05 1008.16 1007.77 1003.72 1004.02 1003.71 1003.27 1003.13 1003.53 1004.22 1005.30
1001.30 1002.64 1003.57 1004.35 1005.89 1006.66 1007.68 1007.00 1002.49 1001.30 1001.43 1000.90 1002.99 1004.83 1004.94 1005.77 1006.06 1006.29 1007.54 1007.67 1007.74 1007.48 1007.93 1008.53 1008.91 1008.52 1008.36 1008.18 1008.87 1009.62 1009.76 1009.77 1009.89 1010.04 1008.44 1008.19 1005.57 1003.42 1002.90 1002.86 1003.10 1003.10 1003.60 1004.40 1005.20
1000.85 1001.75 1002.84 1003.84 1005.08 1006.45 1006.31 1003.17 1001.73 1000.38 999.86 999.92 1002.60 1003.61 1004.47 1004.44 1004.54 1005.73 1005.54 1005.14 1005.45 1006.17 1006.40 1007.15 1007.25 1006.90 1007.04 1007.14 1007.30 1009.41 1009.26 1008.85 1009.14 1009.34 1009.02 1006.17 1004.26 1003.80 1003.40 1003.12 1003.32 1003.29 1003.69 1004.35 1005.35
1000.07 1001.15 1001.70 1003.11 1004.82 1005.17 1004.11 1003.01 1002.81 1000.61 999.08 998.68 998.94 1000.67 1001.52 1002.57 1003.34 1003.78 1004.49 1003.55 1004.29 1004.73 1005.56 1005.85 1006.42 1006.14 1006.36 1007.12 1006.90 1007.07 1007.84 1008.87 1009.08 1008.66 1007.73 1004.97 1004.49 1003.24 1003.09 1002.90 1002.90 1002.96 1003.80 1004.78 1005.58
999.75 1000.74 1001.23 1002.74 1004.56 1004.32 1003.03 1003.34 1002.42 1001.08 999.85 998.41 997.65 999.36 999.93 1000.99 1001.76 1002.38 1002.18 1002.61 1003.14 1003.87 1005.23 1005.40 1005.62 1006.68 1006.26 1005.68 1005.41 1007.04 1007.02 1007.44 1007.53 1007.44 1006.35 1005.22 1002.99 1002.35 1002.23 1002.33 1002.85 1003.10 1003.94 1004.77 1005.54
999.97 1000.86 1001.70 1002.40 1003.79 1002.90 1002.19 1001.69 1001.38 1000.98 1000.11 998.31 997.77 998.00 998.87 1000.03 1000.81 1001.49 1001.18 1000.75 1001.23 1002.64 1003.84 1003.97 1005.41 1005.91 1005.41 1005.25 1005.06 1005.00 1004.56 1005.38 1005.97 1006.85 1006.37 1005.10 1002.07 1002.40 1002.35 1002.61 1003.22 1003.55 1004.41 1005.10 1005.91
1000.12 1000.80 1001.85 1001.83 1002.14 1002.83 1002.78 1001.88 1000.88 1000.52 999.50 998.19 997.51 997.38 998.26 998.96 1000.30 1000.50 1000.56 1000.66 1000.80 1001.80 1002.05 1003.57 1004.44 1005.50 1005.80 1005.51 1005.01 1004.51 1004.67 1004.90 1005.20 1006.09 1005.01 1004.37 1001.71 1002.14 1002.55 1002.97 1003.69 1004.32 1004.87 1005.75 1006.77
999.91 1000.69 1001.07 1001.14 1001.49 1001.97 1001.88 1000.76 1000.56 1000.18 999.63 997.97 997.64 997.31 998.19 998.74 998.68 999.71 1000.21 1000.60 1000.66 1000.96 1002.01 1002.54 1003.15 1003.02 1002.05 1002.27 1002.84 1003.94 1003.82 1004.30 1004.55 1005.16 1002.69 1003.00 1000.84 1001.70 1002.69 1003.44 1004.21 1005.12 1005.80 1006.67 1007.45
999.16 999.57 999.31 1000.20 1000.69 1000.61 1000.64 999.65 999.17 999.15 998.73 997.60 997.35 997.14 997.26 998.31 998.75 999.04 999.80 1000.91 1001.22 1001.23 1002.28 1002.50 1002.63 1002.99 1002.69 1002.81 1002.54 1002.38 1002.75 1003.35 1003.48 1002.14 1002.78 1000.59 1001.73 1000.50 1002.19 1003.46 1004.22 1005.25 1006.47 1007.30 1008.08
998.29 998.58 999.53 999.43 999.34 999.72 998.96 998.09 997.81 998.42 997.53 997.31 996.83 996.95 997.17 997.72 997.91 998.22 998.60 999.87 1000.31 1002.05 1002.10 1002.79 1002.96 1003.20 1003.17 1003.21 1003.08 1002.86 1002.78 1002.08 1001.47 1001.64 1001.79 1000.87 999.56 1001.26 1002.80 1003.53 1004.69 1005.53 1006.27 1006.99 1007.80
996.94 997.33 997.71 998.37 998.26 998.08 997.10 996.45 996.30 996.91 997.48 996.85 996.77 996.87 997.81 998.20 998.40 999.03 999.22 999.47 999.72 1000.61 1001.81 1002.65 1003.20 1003.71 1003.18 1003.15 1003.59 1003.15 1001.31 1001.43 1001.36 1001.05 1000.85 1000.47 998.67 1001.30 1002.42 1003.14 1004.06 1005.33 1006.14 1006.77 1007.73
Wind_Speed
9 8 13 11 10 10 8 7 7 8 8 11 12 13 14 13 15 3 5 3 1 3 2 1 2 2 2 3 2 2 3 3 3 6 1 2 7 0 3 2 2 2 2 2 7
11 9 2 5 9 11 9 8 7 7 8 9 12 13 14 13 4 7 6 5 3 5 1 2 0 2 3 2 2 2 3 7 2 3 1 3 3 7 1 5 2 3 3 2 8
13 11 10 7 8 11 11 9 8 7 8 8 10 13 13 10 5 3 7 2 2 3 2 1 2 1 1 1 2 3 4 3 1 3 3 2 4 2 2 1 6 2 2 3 7
14 11 10 9 7 10 12 10 9 8 7 6 8 11 15 4 5 1 6 3 4 1 2 3 2 2 2 3 2 3 3 3 0 2 3 6 6 4 6 9 5 5 3 4 10
16 13 12 13 3 10 11 11 9 8 8 6 5 8 6 3 8 3 7 7 3 1 2 2 3 3 3 2 2 3 2 2 3 7 7 4 12 6 14 11 11 10 8 11 12
19 16 14 13 9 5 5 11 10 8 8 6 4 6 1 7 3 3 9 4 4 2 1 1 3 3 3 2 2 1 3 6 6 10 6 6 7 2 13 1 8 5 8 8 10
20 18 16 14 12 7 6 13 12 10 9 7 4 1 4 14 0 4 6 2 2 3 2 1 3 2 3 0 0 1 5 7 7 3 7 6 6 10 16 5 7 4 3 6 9
22 21 17 15 12 7 4 13 12 12 10 7 4 2 8 6 6 13 5 6 2 2 1 1 1 3 1 1 3 1 2 4 1 4 2 7 9 8 5 2 8 10 7 7 10
25 23 20 16 13 10 5 15 13 13 9 8 3 3 9 2 4 12 7 6 3 2 0 1 2 2 2 4 2 4 4 4 7 1 2 6 7 3 2 7 11 12 11 10 12
27 25 23 19 15 11 7 18 13 12 5 3 2 3 7 6 4 4 5 8 3 5 2 2 3 4 3 6 9 6 5 5 7 1 2 4 14 16 9 10 14 18 16 13 14
28 27 25 21 18 13 7 8 10 5 9 10 9 5 2 3 3 4 4 10 7 4 9 3 6 13 16 12 3 5 3 6 5 4 7 15 17 14 15 15 22 20 16 13 15
30 28 27 23 20 16 9 10 20 9 6 13 3 15 9 3 2 6 9 11 11 15 9 6 18 14 6 9 10 7 8 11 14 11 6 10 16 18 19 22 19 21 18 16 15
30 29 28 25 18 9 15 26 14 6 6 11 15 8 5 9 6 6 13 5 9 14 20 19 5 15 13 10 10 9 11 8 11 9 8 10 16 8 7 14 15 16 16 14 11
30 30 29 23 16 10 19 21 14 5 4 11 14 17 15 5 9 12 13 6 6 19 11 14 9 8 14 14 13 10 12 10 9 5 8 3 12 10 7 12 12 17 12 10 8
30 30 29 30 9 19 18 11 15 5 11 15 18 10 18 23 9 13 10 4 10 9 10 10 11 19 15 9 16 7 6 10 4 6 4 5 9 3 1 7 14 14 13 6 5
30 31 32 20 10 13 14 13 10 11 15 12 14 20 20 24 17 7 13 4 5 8 4 6 2 9 8 6 18 9 7 4 3 2 10 13 12 12 8 13 6 12 8 7 8
30 32 29 15 23 14 12 12 17 15 11 15 13 21 24 19 27 14 18 21 12 11 12 5 8 3 5 8 10 10 9 3 4 5 12 6 15 17 6 8 11 10 9 8 9
29 31 27 17 12 13 12 17 20 19 23 14 17 22 22 19 21 27 20 20 24 10 10 15 11 15 10 8 11 18 11 7 8 6 7 4 12 6 18 16 13 8 8 5 11
28 15 15 16 12 10 14 19 12 28 29 19 23 23 15 17 13 23 29 28 23 23 16 11 12 7 9 6 13 8 13 7 5 3 7 9 13 10 8 11 7 12 9 9 11
14 11 14 16 13 9 7 26 7 15 24 21 19 13 20 27 16 24 26 23 21 28 12 7 4 6 15 13 13 9 12 5 3 7 9 8 9 11 5 13 13 12 8 7 12
7 8 7 13 7 9 12 9 18 20 19 25 16 11 14 23 19 25 26 10 30 23 21 5 4 2 11 13 19 9 9 5 6 6 6 5 9 6 12 12 10 12 8 11 14
4 7 5 12 10 3 7 9 10 15 25 21 9 5 15 22 20 19 19 24 21 23 30 21 4 7 10 1 8 20 17 13 8 8 6 6 14 4 4 5 7 9 7 11 11
5 3 5 11 10 14 4 10 14 18 17 27 7 6 10 16 13 16 18 12 10 26 23 21 8 6 4 7 5 14 14 16 12 3 15 8 13 3 1 2 1 6 10 10 9
4 4 2 7 3 12 10 13 20 13 20 13 13 9 8 12 5 20 10 3 12 25 10 22 5 21 18 5 11 10 20 17 19 10 21 17 26 15 4 2 4 8 10 11 10
4 4 3 6 9 13 23 15 22 10 22 7 5 16 11 8 14 9 12 6 5 12 11 14 15 13 15 2 8 12 18 21 21 25 14 25 20 22 12 10 10 11 12 12 10
5 5 4 3 7 18 18 21 29 28 14 22 12 12 5 10 9 10 15 6 8 3 14 4 4 7 12 12 9 4 10 25 26 24 22 28 31 5 1 6 10 14 15 14 14
4 2 4 6 6 14 10 15 25 25 7 31 13 13 5 3 9 8 7 7 11 14 14 12 7 5 9 6 6 4 23 19 14 20 17 23 25 6 9 13 16 17 16 16 15
Wind_Direction
275 296 333 237 239 244 238 248 267 284 299 311 319 323 326 333 320 322 281 264 239 320 315 309 84 57 74 97 89 138 102 187 227 170 176 18 2 287 344 315 313 217 157 355 120
268 273 334 359 344 276 233 234 253 272 291 307 315 320 324 337 330 284 274 297 295 335 45 72 131 31 79 87 84 120 177 210 212 195 245 317 306 308 136 353 301 310 98 86 158
259 263 255 276 297 307 237 210 228 244 270 297 312 318 320 326 323 269 337 40 333 34 93 105 107 102 126 163 183 156 210 203 211 232 281 267 267 255 77 238 230 226 229 188 190
247 247 248 255 300 287 225 215 211 233 249 275 307 319 318 300 266 46 337 0 316 280 106 101 94 124 159 208 153 233 232 197 326 156 306 295 297 271 190 232 235 208 212 186 211
240 235 237 248 228 352 216 201 197 212 237 255 289 325 339 252 250 7 18 329 322 19 82 117 151 151 194 186 159 204 278 185 293 299 275 285 262 281 274 258 262 280 256 241 237
238 232 230 240 236 236 291 205 183 198 217 235 275 330 233 243 271 59 8 358 14 26 84 116 169 184 147 181 191 189 281 273 263 255 243 234 260 257 262 295 281 272 265 254 245
244 228 226 228 237 209 300 206 188 185 203 215 198 139 237 234 353 323 335 324 320 336 110 125 138 162 140 193 31 150 303 309 225 250 237 212 245 224 254 294 278 281 236 254 263
237 232 221 222 227 229 249 201 185 167 193 192 184 139 246 245 267 276 260 274 251 248 233 198 169 107 148 116 26 356 107 305 313 170 341 204 264 252 273 260 312 295 276 257 268
233 230 219 216 211 227 220 196 172 155 175 163 172 184 262 289 202 244 207 204 164 141 311 81 85 112 92 124 347 11 262 246 303 212 146 220 279 294 116 313 304 301 284 277 283
231 226 215 207 207 210 216 186 146 107 177 128 270 182 236 219 205 196 194 177 156 128 118 104 60 162 133 171 226 184 224 231 251 68 118 237 262 277 278 292 289 292 291 283 281
226 223 213 204 200 178 174 150 145 189 208 187 176 249 102 310 260 203 179 153 129 147 184 177 201 212 195 204 150 132 195 269 265 219 314 268 265 265 281 281 283 279 272 268 264
219 218 210 202 197 176 207 226 193 136 183 236 139 239 263 26 309 207 162 160 178 195 145 193 232 220 212 189 211 207 236 259 288 282 200 276 266 265 258 259 256 263 271 265 270
216 213 207 197 181 172 216 231 195 159 174 186 213 199 222 189 231 227 179 155 185 179 193 204 209 197 194 195 195 220 217 227 255 315 262 292 276 254 248 249 257 255 254 263 266
211 207 200 182 188 196 225 214 221 230 220 194 197 216 213 168 245 199 190 158 186 201 171 228 208 156 198 221 197 237 211 221 233 274 272 356 295 278 247 250 266 276 254 255 272
206 203 193 182 164 192 211 188 211 198 210 191 181 171 186 195 124 202 174 167 175 166 170 213 186 199 207 194 182 217 171 192 184 208 309 232 273 207 204 244 250 250 248 226 221
202 197 189 191 211 215 196 162 215 214 198 155 141 173 157 200 196 128 174 198 157 165 242 215 192 196 207 183 170 146 125 105 82 159 258 207 219 279 211 234 240 254 256 207 187
196 191 183 180 207 191 185 195 213 206 155 150 161 172 173 176 198 176 183 192 178 177 200 184 217 206 167 119 166 166 140 190 218 192 250 183 213 261 256 243 231 230 235 199 185
190 185 183 199 192 176 201 199 230 170 193 146 150 168 184 155 200 192 182 195 213 205 178 201 220 189 180 177 169 191 179 182 204 204 278 138 237 246 226 232 235 239 250 207 189
185 182 187 191 179 195 205 220 217 163 185 147 145 161 197 183 163 181 200 203 197 200 204 186 230 173 187 175 150 178 217 216 274 214 273 248 267 265 239 236 224 235 230 214 190
184 179 193 174 182 217 223 218 218 215 187 165 162 181 172 178 167 184 186 207 206 201 200 195 203 199 187 194 224 197 138 162 212 214 232 239 262 240 209 220 227 237 227 196 184
175 181 159 140 146 219 221 221 224 257 258 196 176 150 173 170 182 185 190 188 194 190 198 164 185 115 149 203 184 172 192 200 165 191 217 280 260 211 219 204 219 240 211 192 184
110 172 150 141 195 183 234 189 198 248 240 208 189 121 162 172 175 183 193 199 190 176 192 199 139 183 198 131 209 213 204 175 188 189 234 253 266 150 117 158 197 245 201 176 178
124 120 150 153 204 214 215 204 197 215 235 209 203 143 169 164 164 185 200 196 173 180 184 177 204 183 233 262 184 213 208 211 215 101 218 183 252 136 284 154 292 220 174 159 147
146 138 204 178 178 215 201 202 202 232 235 198 202 151 144 169 176 187 181 161 182 190 162 164 157 208 212 207 152 196 201 204 197 215 238 225 253 239 211 191 154 175 169 157 147
163 190 134 187 217 209 205 182 196 210 215 206 186 194 175 158 185 171 168 131 95 180 165 169 210 204 223 69 181 202 192 197 198 218 204 248 233 255 254 219 200 171 157 151 150
154 153 155 202 166 188 210 202 193 202 189 216 173 188 151 158 197 172 157 155 163 107 173 177 185 168 228 218 217 220 219 219 213 222 233 249 261 258 269 144 176 190 172 168 164
181 130 117 165 212 193 204 198 192 171 233 205 185 167 102 121 108 87 77 95 143 161 174 164 148 141 229 171 157 227 231 230 225 231 230 233 249 194 217 205 191 185 180 168 157